Regional Weather Roundup
Issued by NWS Raleigh/Durham, NC

Current Version | Previous Version | Text Only | Print | Product List | Glossary On
Versions: 1 2 3 4 5 6 7 8 9 10 11 12 13 14 15 16 17 18 19 20 21 22 23 24 25 26 27 28 29 30 31 32 33 34 35 36 37 38 39 40 41 42 43 44 45 46 47 48 49 50
000 ASUS42 KRAH 191410 RWRRAH NORTH CAROLINA WEATHER ROUNDUP NATIONAL WEATHER SERVICE RALEIGH NC 900 AM EST FRI DEC 19 2014 NOTE: "FAIR" INDICATES FEW OR NO CLOUDS BELOW 12,000 FEET WITH NO SIGNIFICANT WEATHER AND/OR OBSTRUCTIONS TO VISIBILITY. NCZ001-053-055-056-065-067-191500- WESTERN NORTH CAROLINA CITY SKY/WX TMP DP RH WIND PRES REMARKS ASHEVILLE SUNNY 39 22 50 N9 30.16S WCI 33 JEFFERSON CLOUDY 33 14 45 W3 30.10S MORGANTON SUNNY 37 31 81 CALM 30.21R HICKORY SUNNY 40 27 59 CALM 30.16R RUTHERFORDTON SUNNY 43 28 57 N3 30.17S MOUNT AIRY CLOUDY 40 23 50 N7 30.17S BOONE CLOUDY 33 18 53 NW8G16 30.12R WCI 26 $$ NCZ021-022-025-041-071-084-088-191500- CENTRAL NORTH CAROLINA CITY SKY/WX TMP DP RH WIND PRES REMARKS CHARLOTTE MOSUNNY 44 27 51 N6 30.17R GREENSBORO MOSUNNY 42 21 43 N3 30.15R WINSTON-SALEM SUNNY 42 20 41 NW6 30.17R RALEIGH-DURHAM MOSUNNY 42 24 49 CALM 30.18R FORT BRAGG SUNNY 44 29 57 N3 30.18R FAYETTEVILLE SUNNY 45 31 58 N5 30.18R BURLINGTON SUNNY 43 19 38 NW5 30.15S LAURINBURG SUNNY 40 32 73 N3 30.19R $$ NCZ011-015-027-028-043-044-047-080-103-191500- NORTHEASTERN NORTH CAROLINA CITY SKY/WX TMP DP RH WIND PRES REMARKS ROCKY MT-WILSO SUNNY 38 30 73 N8 30.18R WCI 32 GREENVILLE SUNNY 36 32 87 N6 30.17R WCI 31 WASHINGTON SUNNY 36 32 86 N3 30.16S ELIZABETH CITY SUNNY 42 30 62 N10 30.16R MANTEO SUNNY 42 34 72 N8 30.15R CAPE HATTERAS SUNNY 46 35 65 VRB5 30.13R $$ NCZ078-087-090-091-093-098-101-191500- SOUTHEASTERN NORTH CAROLINA CITY SKY/WX TMP DP RH WIND PRES REMARKS LUMBERTON SUNNY 42 35 76 CALM 30.18R GOLDSBORO SUNNY 43 38 84 NW8 30.16R KINSTON SUNNY 41 36 81 CALM 30.17R KENANSVILLE SUNNY 41 33 72 CALM 30.17R NEW BERN SUNNY 43 34 70 N3 30.16R CHERRY POINT SUNNY 44 35 70 NW3 30.16R BEAUFORT SUNNY 45 35 68 NW8 30.15R JACKSONVILLE MOSUNNY 44 34 67 N6 30.16R WILMINGTON SUNNY 41 34 76 CALM 30.17R $$

USA.gov is the U.S. government's official web portal to all federal, state and local government web resources and services.